TimeCST,TemperatureF,Dew PointF,Humidity,Sea Level PressureIn,VisibilityMPH,Wind Direction,Wind SpeedMPH,Gust SpeedMPH,PrecipitationIn,Events,Conditions,WindDirDegrees,DateUTC
12:53 AM,25.0,18.0,75,30.02,10.0,Calm,Calm,-,N/A,,Clear,0,2013-12-28 06:53:00
1:53 AM,25.0,18.0,75,30.00,10.0,Calm,Calm,-,N/A,,Clear,0,2013-12-28 07:53:00
2:53 AM,23.0,19.0,85,29.98,10.0,Calm,Calm,-,N/A,,Clear,0,2013-12-28 08:53:00
3:53 AM,26.1,19.9,78,29.94,10.0,Calm,Calm,-,N/A,,Clear,0,2013-12-28 09:53:00
4:53 AM,30.9,21.9,69,29.91,10.0,WSW,3.5,-,N/A,,Clear,240,2013-12-28 10:53:00
5:53 AM,25.0,21.0,85,29.92,10.0,Calm,Calm,-,N/A,,Clear,0,2013-12-28 11:53:00
6:53 AM,26.1,21.0,81,29.91,10.0,Calm,Calm,-,N/A,,Clear,0,2013-12-28 12:53:00
7:53 AM,23.0,19.0,85,29.90,10.0,Calm,Calm,-,N/A,,Clear,0,2013-12-28 13:53:00
8:53 AM,25.0,19.9,81,29.89,10.0,Calm,Calm,-,N/A,,Clear,0,2013-12-28 14:53:00
9:53 AM,42.1,26.1,53,29.85,10.0,WSW,5.8,-,N/A,,Clear,240,2013-12-28 15:53:00
10:53 AM,51.1,24.1,35,29.83,10.0,WSW,8.1,-,N/A,,Clear,240,2013-12-28 16:53:00
11:53 AM,60.1,23.0,24,29.81,10.0,WNW,16.1,20.7,N/A,,Clear,300,2013-12-28 17:53:00
12:53 PM,59.0,23.0,25,29.80,10.0,NNW,21.9,26.5,N/A,,Clear,340,2013-12-28 18:53:00
1:53 PM,54.0,25.0,33,29.82,10.0,North,25.3,35.7,N/A,,Clear,350,2013-12-28 19:53:00
2:53 PM,52.0,26.1,37,29.86,10.0,North,27.6,42.6,N/A,,Clear,360,2013-12-28 20:53:00
3:53 PM,46.0,28.0,50,29.92,10.0,North,33.4,41.4,N/A,,Clear,350,2013-12-28 21:53:00
4:53 PM,37.9,26.1,62,29.98,10.0,North,31.1,48.3,N/A,,Clear,350,2013-12-28 22:53:00
5:41 PM,30.2,21.2,69,29.98,10.0,NNW,33.4,43.7,N/A,,Mostly Cloudy,340,2013-12-28 23:41:00
5:53 PM,28.0,19.9,72,30.08,10.0,North,32.2,44.9,N/A,,Overcast,350,2013-12-28 23:53:00
6:53 PM,21.9,15.1,75,30.15,10.0,North,28.8,44.9,N/A,,Overcast,350,2013-12-29 00:53:00
7:53 PM,17.1,9.0,71,30.21,10.0,NNW,31.1,42.6,N/A,,Overcast,340,2013-12-29 01:53:00
8:53 PM,15.1,7.0,70,30.27,9.0,North,28.8,42.6,0.00,Snow,Light Snow,350,2013-12-29 02:53:00
9:53 PM,12.0,3.0,67,30.27,10.0,North,29.9,40.3,0.00,,Overcast,350,2013-12-29 03:53:00
10:53 PM,10.9,1.9,67,30.27,10.0,North,27.6,41.4,N/A,,Overcast,350,2013-12-29 04:53:00
11:53 PM,10.0,1.9,70,30.28,10.0,North,25.3,36.8,N/A,,Overcast,350,2013-12-29 05:53:00